Regional Weather Roundup
Issued by NWS Albany, NY

Home | Current Version | Previous Version | Text Only | Print | Product List | Glossary On
Versions: 1 2 3 4 5 6 7 8 9 10 11 12 13 14 15 16 17 18 19 20 21 22 23 24 25 26 27
000
ASUS41 KALY 040910
RWRALY

NEW YORK STATE HOURLY WEATHER ROUNDUP
NATIONAL WEATHER SERVICE ALBANY NY
500 AM EDT WED MAY 04 2016

NOTE: "FAIR" INDICATES FEW OR NO CLOUDS BELOW 12,000 FEET WITH NO
SIGNIFICANT WEATHER AND/OR NO OBSTRUCTIONS TO VISIBILITY.

NYZ032-033-038>043-046>054-057>066-NYZ062>081-082-084-041000-
EAST


CITY           SKY/WX    TMP DP  RH WIND       PRES   REMARKS
ALBANY         CLOUDY    49  47  93 SE5       29.80S
GLENS FALLS    CLOUDY    47  42  83 E3        29.81R HAZE
POUGHKEEPSIE   CLOUDY    52  49  89 SE3       29.80S FOG
NEWBURGH       CLOUDY    50  50 100 SE7       29.80S FOG
MONTGOMERY     CLOUDY    50  49  96 S3        29.79S FOG
WHITE PLAINS   CLOUDY    48  46  93 E5        29.80S
NEW YORK CITY  LGT RAIN  51  48  89 E7        29.80S
CENTRAL PARK   CLOUDY    50  43  77 VRB3      29.82S
$$

NYZ005>009-017-018-044>046-055-056-041000-
CENTRAL


CITY           SKY/WX    TMP DP  RH WIND       PRES   REMARKS
FULTON         CLOUDY    50  44  80 CALM      29.75F
SYRACUSE       CLOUDY    47  43  86 CALM      29.75S
ROME           CLOUDY    48  47  96 E6        29.78S FOG
ELMIRA         FOG       41  39  93 CALM      29.75S VSB 1
BINGHAMTON     FOG       45  45 100 SE5       29.74S VSB 1
MONTICELLO     CLOUDY    46  46 100 CALM      29.78S
$$

NYZ026>034-041>043-087-041000-
NORTH


CITY           SKY/WX    TMP DP  RH WIND       PRES   REMARKS
WATERTOWN      CLOUDY    47  43  86 CALM      29.75F
FORT DRUM      NOT AVBL
MASSENA        CLOUDY    44  38  79 E7        29.80S
SARANAC LAKE   CLOUDY    39  37  92 NE3       29.75F
PLATTSBURGH    NOT AVBL
$$

NYZ001>004-010>016-019>021-085-041000-
WEST


CITY           SKY/WX    TMP DP  RH WIND       PRES   REMARKS
NIAGARA FALLS  CLEAR     43  38  82 CALM      29.73F
BUFFALO        PTCLDY    43  38  82 SE5       29.74S
DUNKIRK        CLEAR     35  33  92 CALM      29.74S
JAMESTOWN      MOCLDY    43  39  87 CALM      29.72F VSB 1/4
WELLSVILLE     CLOUDY    43  41  93 CALM      29.73F FOG
ROCHESTER      MOCLDY    41  39  93 CALM      29.74F
PENN YAN       PTCLDY    45  42  89 SW5       29.74F
$$

             KEY
       WCI = WIND CHILL INDEX
       VSB = VISIBILITY
       HX  = HEAT INDEX
$$




USA.gov is the U.S. government's official web portal to all federal, state and local government web resources and services.